DEASU EDLW-EDDG

Flight info

Callsign DEASU
Flight time 1h 0m
Altitude
Route
Aircraft BE35

Departure

Time 2026-04-23 19:30
Airport Dortmund Airport (EDLW)

Arrival

Time 2026-04-23 20:30
Airport Münster Osnabrück Airport (EDDG)
Time Latitude Longitude Altitude Speed Heading
2026-04-23 19:06 51.51217 7.60473 443 ft 0 kts 107°
2026-04-23 19:19 51.51231 7.60443 440 ft 9 kts 276°
2026-04-23 19:19 51.51198 7.60304 440 ft 18 kts 238°
2026-04-23 19:20 51.51236 7.60269 439 ft 21 kts 59°
2026-04-23 19:20 51.51320 7.60512 438 ft 28 kts 60°
2026-04-23 19:20 51.51429 7.60818 428 ft 31 kts 60°
2026-04-23 19:20 51.51507 7.61041 425 ft 16 kts 51°
2026-04-23 19:21 51.51590 7.61072 427 ft 9 kts 50°
2026-04-23 19:21 51.51674 7.61315 427 ft 17 kts 59°
2026-04-23 19:21 51.51739 7.61498 423 ft 16 kts 61°
2026-04-23 19:22 51.51763 7.61570 421 ft 6 kts 59°
2026-04-23 19:22 51.51804 7.61692 413 ft 19 kts 56°
2026-04-23 19:22 51.51881 7.61902 413 ft 13 kts 59°
2026-04-23 19:23 51.51938 7.62062 412 ft 18 kts 60°
2026-04-23 19:23 51.51995 7.62224 411 ft 16 kts 61°
2026-04-23 19:23 51.52051 7.62382 410 ft 16 kts 51°
2026-04-23 19:24 51.52124 7.62369 412 ft 0 kts 307°
2026-04-23 19:28 51.52194 7.62292 413 ft 17 kts 301°
2026-04-23 19:29 51.52139 7.62096 413 ft 38 kts 240°
2026-04-23 19:29 51.51520 7.60331 936 ft 111 kts 245°
2026-04-23 19:30 51.52118 7.58313 1764 ft 119 kts 340°
2026-04-23 19:30 51.52908 7.57795 1972 ft 124 kts 339°
2026-04-23 19:30 51.54566 7.56348 1817 ft 147 kts 327°
2026-04-23 19:31 51.55355 7.55517 2031 ft 130 kts 330°
2026-04-23 19:31 51.56095 7.54742 2096 ft 125 kts 329°
2026-04-23 19:31 51.56814 7.53992 2137 ft 123 kts 330°
2026-04-23 19:31 51.57562 7.53320 2158 ft 123 kts 334°
2026-04-23 19:32 51.58321 7.52664 2158 ft 126 kts 333°
2026-04-23 19:32 51.59106 7.52061 2243 ft 122 kts 336°
2026-04-23 19:32 51.59853 7.51457 2316 ft 119 kts 333°
2026-04-23 19:32 51.60461 7.50816 2671 ft 101 kts 323°
2026-04-23 19:33 51.60964 7.49843 2580 ft 120 kts 303°
2026-04-23 19:33 51.61302 7.48696 2768 ft 112 kts 310°
2026-04-23 19:33 51.62072 7.47456 2730 ft 121 kts 324°
2026-04-23 19:34 51.62996 7.46360 2718 ft 124 kts 328°
2026-04-23 19:34 51.63894 7.45217 2786 ft 124 kts 322°
2026-04-23 19:34 51.64975 7.46085 2854 ft 135 kts 91°
2026-04-23 19:35 51.64615 7.47522 2900 ft 141 kts 112°
2026-04-23 19:35 51.64214 7.48940 2930 ft 139 kts 95°
2026-04-23 19:35 51.64229 7.50370 3123 ft 118 kts 61°
2026-04-23 19:35 51.64804 7.51296 3034 ft 121 kts 20°
2026-04-23 19:36 51.65540 7.51033 3102 ft 123 kts 310°
2026-04-23 19:36 51.65605 7.49644 2951 ft 138 kts 262°
2026-04-23 19:36 51.65378 7.48162 3066 ft 140 kts 239°
2026-04-23 19:36 51.64516 7.47653 3248 ft 146 kts 161°
2026-04-23 19:37 51.64063 7.48825 3375 ft 126 kts 68°
2026-04-23 19:37 51.64686 7.49399 3489 ft 115 kts 335°
2026-04-23 19:37 51.64710 7.48213 3539 ft 142 kts 223°
2026-04-23 19:37 51.63815 7.48244 3677 ft 137 kts 125°
2026-04-23 19:38 51.63996 7.49367 3669 ft 114 kts
2026-04-23 19:38 51.64675 7.48842 3652 ft 135 kts 303°
2026-04-23 19:38 51.64472 7.47353 3605 ft 160 kts 220°
2026-04-23 19:38 51.63430 7.47541 3472 ft 165 kts 123°
2026-04-23 19:39 51.63561 7.49059 3406 ft 145 kts 30°
2026-04-23 19:39 51.64339 7.48626 3505 ft 144 kts 290°
2026-04-23 19:39 51.63806 7.47321 3558 ft 159 kts 193°
2026-04-23 19:39 51.62962 7.48127 3569 ft 148 kts 96°
2026-04-23 19:40 51.63506 7.49141 3321 ft 145 kts 346°
2026-04-23 19:40 51.63940 7.48428 3517 ft 140 kts 286°
2026-04-23 19:40 51.63398 7.47096 3496 ft 161 kts 206°
2026-04-23 19:40 51.62515 7.47617 3563 ft 146 kts 96°
2026-04-23 19:41 51.63059 7.48524 3540 ft 132 kts 348°
2026-04-23 19:41 51.63356 7.47225 3451 ft 158 kts 238°
2026-04-23 19:41 51.62344 7.46794 3523 ft 159 kts 184°
2026-04-23 19:41 51.61297 7.47232 3565 ft 151 kts 139°
2026-04-23 19:42 51.60910 7.48650 3482 ft 139 kts 75°
2026-04-23 19:42 51.61514 7.49626 3377 ft 129 kts
2026-04-23 19:42 51.62239 7.48920 3326 ft 127 kts 320°
2026-04-23 19:42 51.62941 7.48172 3320 ft 120 kts 338°
2026-04-23 19:43 51.63693 7.47559 3243 ft 121 kts 335°
2026-04-23 19:43 51.64438 7.47031 3289 ft 112 kts 346°
2026-04-23 19:43 51.65181 7.46718 3249 ft 115 kts 339°
2026-04-23 19:43 51.65898 7.46124 3220 ft 115 kts 332°
2026-04-23 19:44 51.66558 7.45417 3213 ft 114 kts 328°
2026-04-23 19:44 51.67183 7.44652 3202 ft 115 kts 319°
2026-04-23 19:44 51.67671 7.43571 3134 ft 119 kts 310°
2026-04-23 19:44 51.68175 7.42547 3158 ft 115 kts 315°
2026-04-23 19:45 51.68691 7.41549 3118 ft 117 kts 314°
2026-04-23 19:45 51.69168 7.40460 3074 ft 119 kts 309°
2026-04-23 19:45 51.69642 7.39371 3140 ft 119 kts 311°
2026-04-23 19:45 51.70129 7.38263 3219 ft 122 kts 309°
2026-04-23 19:46 51.70592 7.37157 3391 ft 118 kts 317°
2026-04-23 19:46 51.71261 7.36369 3494 ft 116 kts 333°
2026-04-23 19:46 51.71938 7.35703 3633 ft 116 kts 332°
2026-04-23 19:46 51.72620 7.35034 3756 ft 114 kts 337°
2026-04-23 19:47 51.73409 7.34718 3809 ft 117 kts 355°
2026-04-23 19:47 51.74187 7.34590 3994 ft 112 kts 351°
2026-04-23 19:47 51.74985 7.34705 3954 ft 123 kts 23°
2026-04-23 19:47 51.75680 7.35377 4117 ft 119 kts 28°
2026-04-23 19:48 51.76428 7.35973 4173 ft 120 kts 20°
2026-04-23 19:48 51.77206 7.36596 4105 ft 128 kts 26°
2026-04-23 19:48 51.77974 7.37333 4061 ft 126 kts 26°
2026-04-23 19:48 51.78727 7.38105 3909 ft 133 kts 30°
2026-04-23 19:49 51.79503 7.38945 3796 ft 134 kts 32°
2026-04-23 19:49 51.80268 7.39796 3691 ft 133 kts 29°
2026-04-23 19:49 51.81082 7.40476 3635 ft 129 kts 20°
2026-04-23 19:49 51.81874 7.41017 3626 ft 125 kts 20°
2026-04-23 19:50 51.82657 7.41653 3589 ft 124 kts 24°
2026-04-23 19:50 51.83399 7.42293 3615 ft 119 kts 25°
2026-04-23 19:50 51.84172 7.42687 3561 ft 118 kts 356°
2026-04-23 19:50 51.84940 7.42234 3547 ft 119 kts 335°
2026-04-23 19:51 51.85641 7.41522 3518 ft 119 kts 329°
2026-04-23 19:51 51.86225 7.40580 3520 ft 122 kts 310°
2026-04-23 19:51 51.86668 7.39394 3472 ft 126 kts 306°
2026-04-23 19:51 51.87030 7.38037 3340 ft 135 kts 294°
2026-04-23 19:52 51.87069 7.36515 3229 ft 144 kts 273°
2026-04-23 19:52 51.87146 7.34907 3180 ft 133 kts 293°
2026-04-23 19:52 51.87547 7.33633 3215 ft 123 kts 309°
2026-04-23 19:52 51.87971 7.32452 3223 ft 123 kts 305°
2026-04-23 19:53 51.88359 7.31212 3189 ft 126 kts 303°
2026-04-23 19:53 51.88748 7.29939 3165 ft 127 kts 302°
2026-04-23 19:53 51.89088 7.28608 3142 ft 128 kts 298°
2026-04-23 19:53 51.89333 7.27208 3129 ft 132 kts 287°
2026-04-23 19:54 51.89462 7.25741 3114 ft 131 kts 285°
2026-04-23 19:54 51.89489 7.24229 3036 ft 139 kts 274°
2026-04-23 19:54 51.89406 7.22669 3007 ft 138 kts 273°
2026-04-23 19:54 51.89517 7.21199 2987 ft 130 kts 294°
2026-04-23 19:55 51.89785 7.19788 2948 ft 130 kts 293°
2026-04-23 19:55 51.90042 7.18400 2947 ft 128 kts 296°
2026-04-23 19:55 51.90320 7.17023 2912 ft 129 kts 295°
2026-04-23 19:55 51.90604 7.15631 2901 ft 130 kts 293°
2026-04-23 19:56 51.90896 7.14264 2917 ft 129 kts 295°
2026-04-23 19:56 51.91167 7.12887 2943 ft 127 kts 299°
2026-04-23 19:56 51.91536 7.11564 2933 ft 128 kts 301°
2026-04-23 19:56 51.91889 7.10230 2871 ft 133 kts 300°
2026-04-23 19:57 51.92234 7.08839 2900 ft 130 kts 298°
2026-04-23 19:57 51.92454 7.07395 2614 ft 139 kts 284°
2026-04-23 19:57 51.92026 7.06047 2363 ft 156 kts 184°
2026-04-23 19:57 51.91308 7.07097 2124 ft 146 kts 121°
2026-04-23 19:58 51.90619 7.08337 2001 ft 150 kts 128°
2026-04-23 19:58 51.89898 7.09529 2043 ft 144 kts 128°
2026-04-23 19:58 51.89244 7.10753 2022 ft 144 kts 120°
2026-04-23 19:58 51.88757 7.12139 2031 ft 138 kts 102°
2026-04-23 19:59 51.88697 7.13639 1968 ft 132 kts 69°
2026-04-23 19:59 51.89093 7.14887 2019 ft 123 kts 54°
2026-04-23 19:59 51.89393 7.16184 2019 ft 121 kts 63°
2026-04-23 19:59 51.89701 7.17430 2038 ft 118 kts 60°
2026-04-23 20:00 51.90006 7.18666 2026 ft 118 kts 61°
2026-04-23 20:00 51.90612 7.18892 1891 ft 111 kts 339°
2026-04-23 20:00 51.91327 7.18368 1838 ft 111 kts 344°
2026-04-23 20:00 51.92044 7.17982 1878 ft 107 kts 343°
2026-04-23 20:01 51.92742 7.17571 1873 ft 106 kts 342°
2026-04-23 20:01 51.93419 7.17163 1873 ft 101 kts 342°
2026-04-23 20:01 51.94063 7.16769 1865 ft 98 kts 342°
2026-04-23 20:01 51.94680 7.16386 1904 ft 91 kts 342°
2026-04-23 20:02 51.95249 7.16022 1960 ft 85 kts 342°
2026-04-23 20:02 51.95789 7.15680 2016 ft 82 kts 342°
2026-04-23 20:02 51.96331 7.15334 2015 ft 85 kts 342°
2026-04-23 20:02 51.96886 7.14983 2018 ft 86 kts 342°
2026-04-23 20:03 51.97442 7.14629 2016 ft 86 kts 342°
2026-04-23 20:03 51.97994 7.14275 2015 ft 85 kts 342°
2026-04-23 20:03 51.98541 7.13923 2013 ft 84 kts 342°
2026-04-23 20:03 51.99088 7.13571 2013 ft 85 kts 342°
2026-04-23 20:04 51.99644 7.13218 2015 ft 87 kts 342°
2026-04-23 20:04 52.00209 7.12862 2019 ft 87 kts 342°
2026-04-23 20:04 52.00778 7.12507 2022 ft 88 kts 342°
2026-04-23 20:04 52.01338 7.12157 2026 ft 87 kts 342°
2026-04-23 20:05 52.01900 7.11802 2028 ft 86 kts 342°
2026-04-23 20:05 52.02463 7.11448 2028 ft 88 kts 342°
2026-04-23 20:05 52.03038 7.11088 2029 ft 89 kts 342°
2026-04-23 20:05 52.03623 7.10724 2033 ft 90 kts 342°
2026-04-23 20:06 52.04210 7.10358 2033 ft 90 kts 342°
2026-04-23 20:06 52.04794 7.09988 2030 ft 90 kts 342°
2026-04-23 20:06 52.05383 7.09618 2031 ft 91 kts 342°
2026-04-23 20:06 52.05976 7.09244 2032 ft 92 kts 342°
2026-04-23 20:07 52.06573 7.08869 2030 ft 92 kts 342°
2026-04-23 20:07 52.07170 7.08495 2037 ft 91 kts 342°
2026-04-23 20:07 52.07761 7.08112 2029 ft 91 kts 342°
2026-04-23 20:07 52.08346 7.07734 2042 ft 91 kts 342°
2026-04-23 20:08 52.08939 7.07351 2036 ft 92 kts 342°
2026-04-23 20:08 52.09547 7.07275 2035 ft 90 kts 18°
2026-04-23 20:08 52.10143 7.07617 2043 ft 93 kts 15°
2026-04-23 20:08 52.10797 7.07975 2044 ft 105 kts 16°
2026-04-23 20:09 52.11518 7.08388 2043 ft 114 kts 19°
2026-04-23 20:09 52.12255 7.08956 2036 ft 120 kts 22°
2026-04-23 20:09 52.13020 7.09554 2034 ft 123 kts 22°
2026-04-23 20:09 52.13802 7.10151 2030 ft 125 kts 22°
2026-04-23 20:10 52.14325 7.10546 2026 ft 126 kts 22°
2026-04-23 20:10 52.15392 7.11352 2030 ft 127 kts 22°
2026-04-23 20:10 52.16193 7.11960 2032 ft 127 kts 22°
2026-04-23 20:10 52.16983 7.12571 2030 ft 128 kts 22°
2026-04-23 20:11 52.17787 7.13196 2028 ft 128 kts 22°
2026-04-23 20:11 52.18592 7.13821 2028 ft 128 kts 22°
2026-04-23 20:11 52.19399 7.14441 2029 ft 128 kts 22°
2026-04-23 20:11 52.20203 7.15063 2032 ft 128 kts 22°
2026-04-23 20:12 52.21011 7.15682 2027 ft 129 kts 22°
2026-04-23 20:12 52.21825 7.16313 2027 ft 130 kts 22°
2026-04-23 20:12 52.22644 7.16944 2024 ft 130 kts 22°
2026-04-23 20:12 52.23457 7.17576 2030 ft 129 kts 22°
2026-04-23 20:13 52.24271 7.18203 2026 ft 129 kts 22°
2026-04-23 20:13 52.25083 7.18833 2025 ft 129 kts 22°
2026-04-23 20:13 52.25898 7.19463 2025 ft 129 kts 22°
2026-04-23 20:13 52.26710 7.20094 2023 ft 129 kts 22°
2026-04-23 20:14 52.27427 7.20945 2017 ft 135 kts 55°
2026-04-23 20:14 52.27728 7.22423 2023 ft 138 kts 66°
2026-04-23 20:14 52.28007 7.23928 2028 ft 139 kts 66°
2026-04-23 20:14 52.28279 7.25421 2026 ft 140 kts 66°
2026-04-23 20:15 52.28557 7.26939 2027 ft 139 kts 66°
2026-04-23 20:15 52.28835 7.28456 2026 ft 139 kts 66°
2026-04-23 20:15 52.29113 7.29972 2026 ft 139 kts 66°
2026-04-23 20:15 52.29389 7.31491 2029 ft 140 kts 66°
2026-04-23 20:16 52.29664 7.33013 2031 ft 140 kts 66°
2026-04-23 20:16 52.29938 7.34555 2019 ft 141 kts 66°
2026-04-23 20:16 52.30206 7.36097 2021 ft 141 kts 66°
2026-04-23 20:16 52.30475 7.37642 2019 ft 141 kts 66°
2026-04-23 20:17 52.30743 7.39184 2020 ft 141 kts 66°
2026-04-23 20:17 52.31014 7.40727 2020 ft 141 kts 66°
2026-04-23 20:17 52.31282 7.42260 2018 ft 140 kts 66°
2026-04-23 20:17 52.31548 7.43787 2016 ft 140 kts 66°
2026-04-23 20:18 52.31812 7.45325 2020 ft 141 kts 66°
2026-04-23 20:18 52.32079 7.46859 2020 ft 140 kts 66°
2026-04-23 20:18 52.32349 7.48394 2020 ft 141 kts 66°
2026-04-23 20:18 52.32513 7.49928 2004 ft 139 kts 93°
2026-04-23 20:19 52.31953 7.51196 2007 ft 138 kts 131°
2026-04-23 20:19 52.31280 7.52262 2007 ft 132 kts 130°
2026-04-23 20:19 52.30641 7.53266 2006 ft 127 kts 130°
2026-04-23 20:19 52.30000 7.54253 2005 ft 124 kts 130°
2026-04-23 20:20 52.29384 7.55190 2005 ft 122 kts 130°
2026-04-23 20:20 52.28766 7.56121 1995 ft 120 kts 130°
2026-04-23 20:20 52.28152 7.57036 1994 ft 118 kts 130°
2026-04-23 20:20 52.27556 7.57938 1991 ft 115 kts 130°
2026-04-23 20:21 52.26973 7.58822 1991 ft 113 kts 130°
2026-04-23 20:21 52.26400 7.59679 1992 ft 110 kts 130°
2026-04-23 20:21 52.25838 7.60511 1995 ft 107 kts 130°
2026-04-23 20:21 52.25288 7.61311 1995 ft 104 kts 130°
2026-04-23 20:22 52.24755 7.62079 1992 ft 100 kts 130°
2026-04-23 20:22 52.24243 7.62804 1998 ft 97 kts 130°
2026-04-23 20:22 52.23666 7.63619 1936 ft 120 kts 133°
2026-04-23 20:22 52.23005 7.64590 1950 ft 133 kts 130°
2026-04-23 20:23 52.22347 7.65682 2010 ft 138 kts 126°
2026-04-23 20:23 52.21683 7.66878 2013 ft 143 kts 124°
2026-04-23 20:23 52.21010 7.68134 1948 ft 153 kts 130°
2026-04-23 20:23 52.20040 7.68961 1864 ft 165 kts 164°
2026-04-23 20:24 52.18931 7.69452 1824 ft 165 kts 163°
2026-04-23 20:24 52.17845 7.69980 1808 ft 161 kts 161°
2026-04-23 20:24 52.16795 7.70498 1682 ft 156 kts 161°
2026-04-23 20:24 52.15796 7.71068 1488 ft 142 kts 160°
2026-04-23 20:25 52.14913 7.71606 1058 ft 128 kts 186°
2026-04-23 20:25 52.14202 7.71351 661 ft 95 kts 211°
2026-04-23 20:25 52.13877 7.70513 309 ft 85 kts 260°
2026-04-23 20:25 52.13705 7.69636 171 ft 75 kts 257°
2026-04-23 20:26 52.13574 7.68996 163 ft 53 kts 250°
2026-04-23 20:26 52.13407 7.68217 282 ft 89 kts 258°
2026-04-23 20:26 52.13206 7.67146 614 ft 108 kts 258°
2026-04-23 20:26 52.12980 7.65910 988 ft 119 kts 259°
2026-04-23 20:27 52.12710 7.65110 1227 ft 134 kts 225°
2026-04-23 20:27 52.11731 7.64975 1271 ft 155 kts 149°
2026-04-23 20:27 52.11185 7.66303 1348 ft 138 kts 91°
2026-04-23 20:27 52.11212 7.67788 1396 ft 126 kts 72°
2026-04-23 20:28 52.11430 7.69125 1350 ft 123 kts 72°
2026-04-23 20:28 52.11563 7.70471 1214 ft 115 kts 74°
2026-04-23 20:28 52.11693 7.71669 1122 ft 103 kts 64°
2026-04-23 20:28 52.12115 7.72462 1002 ft 88 kts 15°
2026-04-23 20:29 52.12709 7.72552 971 ft 87 kts 358°
2026-04-23 20:29 52.13323 7.72494 881 ft 84 kts 350°
2026-04-23 20:29 52.13824 7.72162 673 ft 72 kts 327°
2026-04-23 20:29 52.14053 7.71478 496 ft 77 kts 274°
2026-04-23 20:30 52.13910 7.70620 323 ft 79 kts 254°
2026-04-23 20:30 52.13597 7.69103 166 ft 52 kts 253°
2026-04-23 20:30 52.13494 7.68638 160 ft 38 kts 252°
2026-04-23 20:31 52.13432 7.68338 164 ft 14 kts 250°
2026-04-23 20:31 52.13347 7.68269 164 ft 17 kts 160°
2026-04-23 20:31 52.13234 7.68334 164 ft 17 kts 163°
2026-04-23 20:31 52.13142 7.68385 164 ft 16 kts 163°
2026-04-23 20:32 52.13106 7.68321 163 ft 0 kts 270°